Showing default

LYNK TOWER 5, 59121

Orbit data source: Space-Track

LYNK TOWER 5, 59121 is a payload satellite owned by Lynk (US) in SSO that was launched on Mon, 04 Mar 2024 UTC via an FALCON 9 launch vehicle from the Air Force Western Test Range (AFWTR). Payload-class satellites include a variety of spacecraft equipped with specific instruments for various scientific and technological missions. These include communications satellites like Starlink; space stations such as the ISS; scientific satellites like the Hubble; Earth observation satellites from companies like Planet Labs, Umbra, and HawkEye 360; GPS; miniature CubeSats for education and research; and military/defense satellites.

Loading next visibility...
Identifier
59121, 2024-043Z
Orbit
SSO
Country
Flag of USUS
Related business
Manufacturer
Lynk
Mission
Operational Commercial Communications
Bus & Motor
LYNK SHANNON, Unknown motor
Mass
~85 kg wet, ~85 kg dry
Launch date (UTC)
2024-03-04 (2 years ago)
Launch vehicle
FALCON 9
Launch site
Air Force Western Test Range (AFWTR)
Object type
Payload
Rocket body
Debris
Shape & HBR
Box, 0.5 m
Radar Cross Section
0.650 m², Medium (>0.1 m² and < 1m²)

Expand to show TLE details & history
Last TLE update: 1 day ago

TLE from 1 day ago
0 LYNK TOWER 5
1 59121U 24043Z   26035.94457976  .00009483  00000-0  33981-3 0  9999
2 59121  97.5418 171.2867 0011486   1.2455 358.8811 15.28898557106822
Epoch: 2026-02-04T22:40Z
TLE epoch observation values (Epoch: 2026-02-04T22:40:11.691Z)
Latitude
-0.00002°
Longitude
56.1341°
Altitude
474.326 km
Speed
7.633 km/s
True Right ascension
11h 25m 08s
True Declination
0° 00' 00"
Sunlit
Object was in full shadow at epoch
Visualization orbit readout
Latitude
Unknown
Longitude
Unknown
Altitude
Unknown
Speed
Unknown
Apparent Right ascension
Unknown
Apparent Declination
Unknown
Sunlit
N/A
Visualization observer readout
Local Sidereal Time
04:53:05
Azimuth
Unknown
Elevation
Unknown
Doppler factor
Unknown
Orbital elements
Apogee altitude
483.936 km
Perigee altitude
468.191 km
Semi-major axis
6,854.201 km
Eccentricity
0.00115
Inclination
97.5418°
RAAN
171.2867°
Arg. of periapsis
1.2455°
True anomaly
358.87853°
Mean anomaly
358.8811°
Eccentric anomaly
358.87981°
Mean motion
3.82479 °/min
Orbital period
94.12 mins
BSTAR
0.00033981
Loading maneuver chart data...
Computing Atmospheric mass density...
Loading historical data...
Loading historical data...
Loading historical data...
Loading historical data...
Loading historical data...
Loading historical data...
Loading historical data...

Documentation

Showing up to 5 results
|